[[{"header":{"parameterUnit":"m.s-1","parameterCategory":1,"la1":30.2991,"la2":30.254,"lo1":-89.0895,"lo2":-89.0444,"dy":0.0017,"dx":0.0017,"nx":28,"ny":28,"refTime":"2025-07-03T21:00:00:Z","depth":0,"parameterNumber":2,"parameterNumberName":"U-component_of_WINDS"},"data":[0,0,0,0,0,0,0,0,0,0,0,0,0,0,0,0,0,0,0,0,0,0,0,0,0,0,0,0,0,0,0,0,0,0,0,0,0,0,0,0,0,0,0,0,0,0,0,0,0,0,0,0,0,0,0,0,0,0,0.5461,0.5463,0,0.5656,0.5658,0.5661,0.5707,0.5706,0.5704,0.5703,0.5907,0.5913,0.592,0,0,0,0,0,0,0,0,0,0,0,0,0,0.5133,0.5139,0.5461,0.5463,0.5466,0.5656,0.5658,0.5661,0.5707,0.5705,0.5704,0.5702,0.5905,0.5913,0.5921,0,0,0,0,0,0,0,0,0,0,0,0,0,0.5296,0.514,0.5461,0.5512,0.5518,0.5655,0.5659,0.5662,0.5707,0.5705,0.5703,0.5702,0.5902,0.5912,0.5922,0.6023,0,0,0.5952,0.5957,0,0,0,0,0,0,0,0,0.5287,0.5308,0.5502,0.5508,0.5516,0.5655,0.5618,0.5783,0.5708,0.5636,0.5703,0.5701,0.5825,0.5841,0.5882,0.6033,0.6041,0.5953,0.5959,0.5963,0.5966,0,0,0,0,0,0,0,0.5276,0.53,0.5538,0.5504,0.5513,0.5526,0.5547,0.5649,0.5739,0.5642,0.5646,0.5668,0.5829,0.5873,0.5887,0.6044,0.5953,0.5962,0.5968,0.5972,0.6289,0.6291,0,0,0,0,0,0,0.5255,0.529,0.5532,0.5544,0.5394,0.5534,0.5557,0.5612,0.5738,0.5755,0.5669,0.5669,0.5856,0.5876,0.5895,0.6022,0.5963,0.5973,0.5979,0.6287,0.629,0.6292,0,0,0,0,0,0,0.5248,0.5276,0.5524,0.5418,0.5451,0.5541,0.5603,0.5617,0.5661,0.5759,0.5776,0.5697,0.5856,0.5881,0.5991,0.603,0.5977,0.5986,0.6284,0.6288,0.6291,0.6277,0,0,0,0,0,0,0.5238,0.5273,0.5311,0.5419,0.5456,0.5616,0.5606,0.5623,0.5678,0.568,0.579,0.5806,0.5856,0.5976,0.6001,0.6043,0.5994,0.6281,0.6285,0.629,0.6275,0.628,0.6285,0,0,0,0,0,0.5226,0.5301,0.5313,0.5342,0.5506,0.5618,0.5639,0.5694,0.5681,0.5721,0.5784,0.5803,0.6022,0.5986,0.6015,0.6061,0.6279,0.6284,0.6289,0.6273,0.6279,0.6285,0,0,0,0,0,0,0.5196,0.5316,0.5331,0.5442,0.5519,0.5625,0.5677,0.5699,0.5783,0.5781,0.5847,0.5871,0.5977,0.603,0.5989,0.6166,0.615,0.6161,0.6127,0.6134,0.6139,0.6124,0.6002,0,0,0,0,0,0.5202,0.5282,0.5382,0.5471,0.5509,0.5586,0.5637,0.5672,0.5755,0.5789,0.586,0.5941,0.6028,0.6084,0.617,0.6283,0.6308,0.6329,0.6333,0.6337,0.6346,0.6411,0.6421,0.631,0.631,0.631,0,0,0.5217,0.5292,0.5338,0.5467,0.5531,0.5613,0.5613,0.57,0.5762,0.5803,0.591,0.5965,0.6061,0.6172,0.6225,0.622,0.6383,0.6344,0.6346,0.6354,0.6417,0.6428,0.6437,0.6314,0.6313,0.6313,0,0,0.5284,0.5348,0.5429,0.5493,0.559,0.5641,0.566,0.5764,0.5801,0.591,0.5942,0.6018,0.6166,0.6233,0.6286,0.638,0.64,0.6406,0.6432,0.6494,0.6503,0.6511,0.6544,0.6555,0.6415,0.6415,0.6415,0,0.5289,0.5413,0.5468,0.5554,0.561,0.5649,0.5732,0.5792,0.5912,0.5951,0.5943,0.6131,0.6198,0.6326,0.6348,0.639,0.6415,0.6393,0.6497,0.6505,0.6514,0.6546,0.6559,0.6415,0.6415,0.6415,0.6415,0,0.5415,0.55,0.5555,0.5668,0.5731,0.5814,0.5884,0.5941,0.5971,0.6023,0.6135,0.6216,0.6319,0.6353,0.6383,0.6486,0.6479,0.6483,0.6468,0.6523,0.6555,0.6568,0.6415,0.6415,0.6415,0.6415,0,0,0.5469,0.5612,0.5631,0.5683,0.5793,0.5861,0.5947,0.6046,0.6094,0.6176,0.6251,0.6376,0.638,0.6441,0.6479,0.6534,0.6603,0.6531,0.6535,0.6542,0.6721,0.6717,0.6731,0.6617,0.662,0.6622,0.6713,0,0.5549,0.5703,0.5756,0.5884,0.5964,0.6003,0.6078,0.6154,0.6206,0.6283,0.634,0.6428,0.6427,0.6463,0.6519,0.6582,0.664,0.6577,0.6689,0.6692,0.6663,0.6748,0.6744,0.6826,0.6726,0.6728,0.673,0,0.5664,0.5746,0.5881,0.5981,0.6017,0.6084,0.6179,0.6252,0.634,0.6374,0.6441,0.6476,0.6569,0.6549,0.6679,0.6634,0.6684,0.6722,0.6726,0.6739,0.6714,0.6763,0.6854,0.6866,0.675,0.6749,0.6747,0,0.5689,0.5834,0.5934,0.5978,0.6097,0.6143,0.6195,0.6281,0.6337,0.6422,0.6459,0.6554,0.6606,0.6679,0.6739,0.6718,0.6864,0.6848,0.6895,0.6894,0.6924,0.6921,0.7024,0.6956,0.6955,0.6955,0.6955,0,0.5774,0.5855,0.5947,0.6008,0.6101,0.6162,0.6252,0.6307,0.6383,0.6457,0.6497,0.6566,0.6641,0.672,0.6768,0.6868,0.6892,0.6922,0.6934,0.6919,0.6915,0.6952,0.6947,0.6959,0.6958,0.6957,0.6957,0,0.5818,0.5882,0.5994,0.6097,0.6126,0.6189,0.6279,0.6341,0.6394,0.6487,0.6512,0.6597,0.6692,0.6759,0.6881,0.6914,0.7022,0.7034,0.6992,0.6997,0.7041,0.7036,0.7171,0.7192,0.7109,0.711,0.711,0,0.5867,0.593,0.6041,0.6092,0.6144,0.6227,0.6285,0.6348,0.6407,0.6512,0.6561,0.6659,0.674,0.689,0.6963,0.7057,0.7071,0.7112,0.7086,0.7068,0.7072,0.7067,0.7074,0.7116,0.7117,0.7117,0.7118,0,0.5948,0.5977,0.6058,0.6151,0.6218,0.6294,0.6371,0.6412,0.6489,0.6553,0.665,0.6713,0.6837,0.6934,0.7035,0.7091,0.7118,0.7125,0.7141,0.7126,0.7099,0.7114,0.7002,0.7122,0.7121,0.7121,0.7121,0.7121,0.5996,0.6054,0.6141,0.6231,0.6295,0.6366,0.6429,0.649,0.6571,0.6677,0.671,0.681,0.6898,0.7037,0.7094,0.7174,0.7172,0.7195,0.7201,0.7206,0.7205,0.7086,0.7193,0.7193,0.7193,0.7193,0.7193,0,0.6079,0.6137,0.6218,0.6324,0.6395,0.6413,0.6499,0.6557,0.6645,0.6723,0.6802,0.6914,0.7008,0.7089,0.7186,0.7235,0.725,0.7259,0.7256,0.7268,0.7201,0.7178,0.7245,0.7245,0.7245,0.7245,0.7245,0.7245,0.613,0.623,0.6269,0.6401,0.646,0.6557,0.6605,0.6671,0.6734,0.6857,0.6935,0.6986,0.7066,0.717,0.7258,0.7279,0.7313,0.7319,0.7343,0.7279,0.7273,0.7267,0.7245,0.7326,0.7326,0.7404,0.7405,0.7405]},{"header":{"parameterUnit":"m.s-1","parameterCategory":1,"la1":30.2991,"la2":30.254,"lo1":-89.0895,"lo2":-89.0444,"dy":0.0017,"dx":0.0017,"nx":28,"ny":28,"refTime":"2025-07-03T21:00:00:Z","depth":0,"parameterNumber":3,"parameterNumberName":"V-component_of_WINDS"},"data":[0,0,0,0,0,0,0,0,0,0,0,0,0,0,0,0,0,0,0,0,0,0,0,0,0,0,0,0,0,0,0,0,0,0,0,0,0,0,0,0,0,0,0,0,0,0,0,0,0,0,0,0,0,0,0,0,0,0,1.3804,1.3804,0,1.3852,1.3852,1.3853,1.3771,1.3768,1.3766,1.3763,1.3813,1.3817,1.3821,0,0,0,0,0,0,0,0,0,0,0,0,0,1.364,1.3643,1.3804,1.3804,1.3805,1.3852,1.3852,1.3853,1.3772,1.3768,1.3765,1.3762,1.3812,1.3816,1.3821,0,0,0,0,0,0,0,0,0,0,0,0,0,1.3702,1.3644,1.3803,1.377,1.3767,1.3851,1.3852,1.3853,1.3772,1.3768,1.3764,1.376,1.381,1.3816,1.3822,1.3941,0,0,1.384,1.3842,0,0,0,0,0,0,0,0,1.3698,1.3708,1.3774,1.3772,1.377,1.3801,1.3813,1.3883,1.3773,1.377,1.3763,1.3758,1.3812,1.3818,1.3836,1.3944,1.3946,1.384,1.3844,1.3846,1.3848,0,0,0,0,0,0,0,1.3694,1.3705,1.3823,1.3775,1.3772,1.3752,1.3756,1.3826,1.3814,1.377,1.3765,1.3771,1.381,1.3831,1.3837,1.3946,1.384,1.3845,1.3849,1.3851,1.415,1.4154,0,0,0,0,0,0,1.3694,1.3702,1.3821,1.3824,1.3723,1.3758,1.3763,1.3795,1.3813,1.3812,1.3775,1.3767,1.3823,1.383,1.3838,1.3976,1.3846,1.3852,1.3855,1.4146,1.4151,1.4156,0,0,0,0,0,0,1.3691,1.3705,1.3819,1.3761,1.3774,1.3765,1.3802,1.3798,1.3818,1.3817,1.3814,1.3798,1.382,1.383,1.3915,1.3977,1.3854,1.386,1.414,1.4147,1.4153,1.4256,0,0,0,0,0,0,1.3686,1.3705,1.3751,1.3763,1.3778,1.3896,1.3806,1.3802,1.3829,1.3819,1.3837,1.3836,1.3817,1.3907,1.3921,1.3983,1.3864,1.4135,1.4143,1.4151,1.4247,1.4265,1.428,0,0,0,0,0,1.3681,1.3779,1.3754,1.3768,1.3835,1.39,1.3908,1.3884,1.3834,1.3879,1.3878,1.3836,1.3968,1.3916,1.3932,1.3996,1.4131,1.4141,1.4151,1.4239,1.4261,1.428,0,0,0,0,0,0,1.3775,1.378,1.3752,1.3857,1.3879,1.3886,1.3943,1.3909,1.3946,1.3936,1.3904,1.3909,1.4,1.4007,1.3949,1.411,1.4041,1.4054,1.4103,1.4124,1.4141,1.4137,1.3869,0,0,0,0,0,1.3808,1.3861,1.3862,1.3954,1.3966,1.3953,1.3981,1.3959,1.3981,1.399,1.3994,1.4017,1.4062,1.4094,1.4137,1.4247,1.4248,1.4299,1.4316,1.433,1.4341,1.4397,1.4418,1.4188,1.4188,1.4188,0,0,1.3877,1.3886,1.3921,1.3973,1.3988,1.4041,1.3961,1.4023,1.4062,1.3999,1.4079,1.4083,1.4106,1.4203,1.4247,1.4212,1.4405,1.4342,1.4353,1.4358,1.4409,1.4431,1.4451,1.4195,1.4194,1.4193,0,0,1.4029,1.4043,1.4119,1.4134,1.4156,1.4146,1.4165,1.4177,1.4176,1.4256,1.4209,1.4255,1.4336,1.4353,1.4372,1.4527,1.4489,1.4542,1.463,1.4684,1.4702,1.4718,1.4771,1.4791,1.4554,1.4554,1.4554,0,1.4112,1.4192,1.4163,1.4227,1.425,1.4194,1.427,1.4286,1.4321,1.4338,1.4298,1.4396,1.4408,1.4507,1.4544,1.4563,1.4581,1.4539,1.4702,1.4718,1.4732,1.4782,1.4802,1.456,1.4559,1.4559,1.4558,0,1.4291,1.4347,1.4406,1.4439,1.4469,1.4539,1.4519,1.4553,1.4529,1.4522,1.4602,1.4614,1.4656,1.4678,1.4656,1.4773,1.475,1.4707,1.4636,1.4761,1.4807,1.4826,1.4569,1.4567,1.4565,1.4563,0,0,1.4507,1.452,1.4542,1.4555,1.4573,1.4615,1.4682,1.4722,1.475,1.4775,1.4829,1.4897,1.4855,1.4877,1.4856,1.4904,1.5023,1.4855,1.4854,1.4883,1.5149,1.518,1.5203,1.4997,1.5001,1.5004,1.5146,0,1.4656,1.4769,1.4743,1.4854,1.4904,1.4849,1.4906,1.4923,1.4919,1.4959,1.4954,1.5001,1.4945,1.4957,1.5003,1.4999,1.5075,1.4988,1.5045,1.5048,1.504,1.5228,1.5262,1.5396,1.5164,1.5168,1.517,0,1.4846,1.4876,1.4992,1.4998,1.5018,1.507,1.5103,1.5143,1.516,1.5153,1.5175,1.5144,1.5208,1.5136,1.5222,1.5164,1.5185,1.5187,1.5191,1.5195,1.5116,1.5234,1.5438,1.5458,1.5198,1.5196,1.5194,0,1.4988,1.5058,1.5135,1.5148,1.5159,1.5196,1.5202,1.5215,1.5239,1.5268,1.5283,1.5319,1.5339,1.5367,1.5346,1.5296,1.5434,1.5362,1.5429,1.5429,1.546,1.5458,1.5668,1.5477,1.5477,1.5476,1.5476,0,1.5157,1.5229,1.5198,1.5246,1.5324,1.5293,1.5371,1.5371,1.5383,1.5428,1.5384,1.5428,1.5397,1.5438,1.5422,1.5494,1.5504,1.5498,1.5493,1.5502,1.5502,1.5514,1.5504,1.5481,1.548,1.5479,1.5478,0,1.5329,1.5311,1.5391,1.5394,1.5396,1.5453,1.5455,1.5498,1.5489,1.5547,1.5558,1.5544,1.5589,1.557,1.5619,1.5608,1.5699,1.5683,1.5693,1.5688,1.5755,1.5748,1.598,1.6008,1.58,1.5802,1.5804,0,1.5437,1.5491,1.5498,1.5524,1.5533,1.5577,1.5601,1.5572,1.5598,1.562,1.566,1.5701,1.5732,1.5807,1.58,1.5836,1.5819,1.5897,1.5824,1.583,1.5817,1.5814,1.5818,1.5912,1.5914,1.5916,1.5918,0,1.563,1.5618,1.5654,1.5686,1.5715,1.5739,1.576,1.5784,1.5755,1.5787,1.5832,1.5856,1.5904,1.5944,1.5975,1.5981,1.5944,1.5941,1.5958,1.5966,1.597,1.5966,1.5731,1.5936,1.5934,1.5932,1.5932,1.5931,1.5772,1.5816,1.5827,1.5867,1.5879,1.5898,1.5937,1.5932,1.5968,1.6004,1.5985,1.6036,1.6048,1.6086,1.6096,1.6135,1.6105,1.613,1.6136,1.6142,1.615,1.5964,1.6141,1.6141,1.614,1.614,1.6139,0,1.5961,1.5964,1.6002,1.603,1.6061,1.6023,1.6042,1.6071,1.6117,1.6131,1.6161,1.6211,1.6249,1.6245,1.628,1.6312,1.6296,1.6322,1.6318,1.632,1.6177,1.6157,1.6334,1.6334,1.6334,1.6334,1.6334,1.6334,1.6063,1.6134,1.6122,1.6198,1.62,1.6249,1.6263,1.628,1.6291,1.6348,1.6379,1.6375,1.6381,1.6415,1.6448,1.6446,1.646,1.6492,1.6483,1.635,1.633,1.6312,1.6293,1.6496,1.6496,1.6622,1.6624,1.6625]}]]